Terminal Aerodrome Forecast
Issued by NWS Brownsville, TX

Home | Current Version | Previous Version | Text Only | Print | Product List | Glossary On
Versions: 1 2 3 4 5 6 7 8 9 10 11 12 13 14 15 16 17 18 19 20 21 22 23 24 25 26
000
FTUS44 KBRO 240534
TAFHRL
TAF
KHRL 240534Z 2406/2506 16020G25KT P6SM OVC010
     FM241700 17025G35KT P6SM SCT020 SCT050
     FM242300 17018G24KT P6SM SCT040 BKN200
     FM250200 15010KT P6SM SCT020 BKN200=

USA.gov is the U.S. government's official web portal to all federal, state and local government web resources and services.